Date, platform_minetest, platform_other, reason_new, reason_dependency, reason_update
2022-10-23, 1, 0, 1, 0, 0
2022-10-25, 2, 0, 2, 0, 0
2022-10-26, 1, 0, 1, 0, 0
2022-10-27, 2, 0, 1, 0, 0
2022-10-28, 5, 0, 5, 0, 0
2022-10-29, 2, 0, 2, 0, 0
2022-10-30, 2, 1, 2, 0, 0
2022-10-31, 2, 0, 2, 0, 0
2022-11-01, 1, 0, 1, 0, 0
2022-11-02, 2, 0, 2, 0, 0
2022-11-03, 1, 0, 1, 0, 0
2022-11-04, 3, 1, 2, 0, 0
2022-11-05, 10, 0, 9, 0, 0
2022-11-06, 3, 0, 3, 0, 0
2022-11-07, 2, 0, 2, 0, 0
2022-11-08, 4, 1, 4, 0, 0
2022-11-09, 2, 0, 2, 0, 0
2022-11-10, 3, 0, 3, 0, 0
2022-11-11, 4, 0, 3, 0, 0
2022-11-12, 2, 0, 1, 0, 0
2022-11-13, 1, 0, 0, 0, 0
2022-11-14, 2, 0, 2, 0, 0
2022-11-16, 1, 0, 1, 0, 0
2022-11-17, 1, 0, 1, 0, 0
2022-11-18, 2, 0, 2, 0, 0
2022-11-19, 0, 1, 0, 0, 0
2022-11-20, 3, 0, 3, 0, 0
2022-11-21, 1, 0, 1, 0, 0
2022-11-22, 1, 0, 1, 0, 0
2022-11-24, 0, 1, 0, 0, 0
2022-11-25, 2, 0, 1, 0, 0
2022-11-27, 10, 0, 9, 0, 0
2022-11-28, 1, 0, 1, 0, 0
2022-11-29, 2, 0, 1, 0, 0
2022-11-30, 2, 0, 1, 0, 0
2022-12-01, 1, 0, 1, 0, 0
2022-12-02, 1, 1, 0, 0, 0
2022-12-03, 2, 2, 2, 0, 0
2022-12-04, 3, 0, 2, 0, 0
2022-12-05, 1, 1, 1, 0, 0
2022-12-06, 1, 7, 1, 0, 0
2022-12-07, 1, 2, 1, 0, 0
2022-12-08, 0, 12, 0, 0, 0
2022-12-09, 1, 3, 1, 0, 0
2022-12-10, 6, 0, 4, 0, 0
2022-12-11, 1, 0, 1, 0, 0
2022-12-13, 4, 0, 4, 0, 0
2022-12-14, 3, 1, 3, 0, 0
2022-12-16, 1, 0, 1, 0, 0
2022-12-17, 2, 0, 1, 0, 0
2022-12-18, 4, 0, 4, 0, 0
2022-12-19, 1, 4, 0, 0, 0
2022-12-21, 0, 1, 0, 0, 0
2022-12-23, 0, 1, 0, 0, 0
2022-12-24, 1, 2, 1, 0, 0
2022-12-25, 0, 2, 0, 0, 0
2022-12-26, 1, 0, 1, 0, 0
2022-12-27, 3, 0, 2, 0, 0
2022-12-28, 1, 0, 1, 0, 0
2022-12-29, 4, 1, 3, 0, 0
2022-12-30, 3, 0, 2, 0, 0
2022-12-31, 2, 0, 2, 0, 0
2023-01-01, 2, 0, 2, 0, 0
2023-01-02, 2, 0, 2, 0, 0
2023-01-03, 1, 0, 0, 0, 0
2023-01-04, 3, 1, 2, 0, 0
2023-01-05, 1, 1, 0, 0, 0
2023-01-06, 5, 1, 5, 0, 0
2023-01-07, 2, 0, 2, 0, 0
2023-01-08, 5, 0, 4, 0, 0
2023-01-09, 4, 0, 4, 0, 0
2023-01-10, 1, 1, 0, 0, 0
2023-01-11, 0, 1, 0, 0, 0
2023-01-12, 1, 0, 0, 0, 0
2023-01-13, 2, 2, 1, 0, 0
2023-01-14, 4, 0, 3, 0, 0
2023-01-15, 1, 1, 1, 0, 0
2023-01-16, 4, 0, 3, 0, 0
2023-01-17, 1, 0, 1, 0, 0
2023-01-18, 2, 1, 2, 0, 0
2023-01-19, 2, 0, 2, 0, 0
2023-01-20, 2, 1, 1, 0, 0
2023-01-21, 1, 0, 1, 0, 0
2023-01-22, 1, 0, 1, 0, 0
2023-01-23, 1, 1, 0, 0, 0
2023-01-24, 4, 3, 3, 0, 0
2023-01-25, 2, 0, 1, 0, 0
2023-01-26, 0, 1, 0, 0, 0
2023-01-27, 0, 1, 0, 0, 0
2023-01-28, 3, 1, 3, 0, 0
2023-01-29, 1, 0, 1, 0, 0
2023-01-30, 1, 0, 1, 0, 0
2023-01-31, 2, 1, 1, 0, 0
2023-02-01, 3, 0, 3, 0, 0
2023-02-02, 2, 0, 2, 0, 0
2023-02-03, 1, 0, 1, 0, 0
2023-02-04, 1, 0, 1, 0, 0
2023-02-05, 3, 0, 3, 0, 0
2023-02-06, 0, 2, 0, 0, 0
2023-02-07, 4, 0, 4, 0, 0
2023-02-08, 2, 0, 2, 0, 0
2023-02-09, 2, 0, 1, 0, 0
2023-02-10, 2, 0, 2, 0, 0
2023-02-11, 3, 0, 2, 0, 0
2023-02-12, 1, 0, 1, 0, 0
2023-02-13, 2, 1, 1, 0, 0
2023-02-14, 1, 1, 1, 0, 0
2023-02-16, 0, 1, 0, 0, 0
2023-02-18, 5, 0, 5, 0, 0
2023-02-19, 4, 10, 4, 0, 0
2023-02-20, 1, 1, 0, 0, 0
2023-02-22, 1, 2, 0, 0, 0
2023-02-23, 1, 0, 1, 0, 0
2023-02-25, 6, 1, 4, 0, 0
2023-02-26, 2, 0, 2, 0, 0
2023-02-28, 4, 0, 4, 0, 0
2023-03-02, 3, 0, 3, 0, 0
2023-03-03, 1, 1, 0, 0, 0
2023-03-04, 5, 0, 5, 0, 0
2023-03-05, 2, 0, 1, 0, 0
2023-03-06, 2, 1, 2, 0, 0
2023-03-07, 0, 1, 0, 0, 0
2023-03-09, 3, 0, 3, 0, 0
2023-03-10, 3, 0, 2, 0, 0
2023-03-11, 3, 0, 3, 0, 0
2023-03-12, 2, 0, 1, 0, 0
2023-03-13, 2, 0, 1, 0, 0
2023-03-15, 2, 1, 2, 0, 0
2023-03-16, 2, 0, 2, 0, 0
2023-03-17, 3, 1, 3, 0, 0
2023-03-18, 1, 1, 1, 0, 0
2023-03-20, 1, 0, 1, 0, 0
2023-03-21, 1, 1, 0, 0, 0
2023-03-22, 4, 0, 3, 0, 0
2023-03-24, 2, 0, 1, 0, 0
2023-03-25, 1, 1, 0, 0, 0
2023-03-26, 4, 0, 4, 0, 0
2023-03-27, 1, 0, 1, 0, 0
2023-03-28, 4, 1, 2, 0, 0
2023-03-29, 2, 0, 1, 0, 0
2023-03-30, 3, 0, 3, 0, 0
2023-04-01, 4, 0, 4, 0, 0
2023-04-02, 3, 1, 2, 0, 0
2023-04-04, 1, 0, 1, 0, 0
2023-04-05, 2, 0, 1, 0, 0
2023-04-06, 1, 0, 1, 0, 0
2023-04-07, 2, 0, 2, 0, 0
2023-04-08, 3, 0, 2, 0, 0
2023-04-09, 0, 1, 0, 0, 0
2023-04-10, 1, 0, 1, 0, 0
2023-04-11, 5, 0, 4, 0, 0
2023-04-13, 2, 0, 2, 0, 0
2023-04-15, 1, 0, 1, 0, 0
2023-04-16, 1, 1, 1, 0, 0
2023-04-18, 1, 1, 0, 0, 0
2023-04-19, 0, 1, 0, 0, 0
2023-04-20, 2, 0, 2, 0, 0
2023-04-21, 1, 0, 1, 0, 0
2023-04-22, 2, 0, 2, 0, 0
2023-04-23, 1, 0, 1, 0, 0
2023-04-25, 2, 0, 2, 0, 0
2023-04-27, 3, 3, 3, 0, 0
2023-04-28, 15, 0, 14, 0, 0
2023-04-29, 1, 0, 1, 0, 0
2023-04-30, 2, 0, 2, 0, 0
2023-05-01, 2, 1, 2, 0, 0
2023-05-02, 1, 0, 0, 0, 0
2023-05-03, 1, 0, 1, 0, 0
2023-05-04, 0, 1, 0, 0, 0
2023-05-05, 2, 0, 2, 0, 0
2023-05-07, 1, 0, 0, 0, 0
2023-05-09, 4, 0, 2, 0, 0
2023-05-10, 1, 1, 1, 0, 0
2023-05-11, 1, 1, 1, 0, 0
2023-05-12, 2, 0, 2, 0, 0
2023-05-13, 2, 0, 2, 0, 0
2023-05-15, 1, 0, 1, 0, 0
2023-05-17, 3, 1, 3, 0, 0
2023-05-19, 2, 0, 2, 0, 0
2023-05-20, 1, 0, 0, 0, 0
2023-05-21, 1, 1, 1, 0, 0
2023-05-23, 3, 1, 3, 0, 0
2023-05-25, 5, 0, 5, 0, 0
2023-05-27, 1, 1, 1, 0, 0
2023-05-28, 1, 1, 1, 0, 0
2023-05-29, 2, 0, 2, 0, 0
2023-05-30, 0, 1, 0, 0, 0
2023-05-31, 0, 2, 0, 0, 0
2023-06-02, 1, 0, 1, 0, 0
2023-06-03, 2, 1, 2, 0, 0
2023-06-04, 1, 0, 1, 0, 0
2023-06-05, 0, 1, 0, 0, 0
2023-06-06, 2, 0, 2, 0, 0
2023-06-07, 0, 1, 0, 0, 0
2023-06-09, 1, 0, 1, 0, 0
2023-06-10, 2, 1, 2, 0, 0
2023-06-11, 2, 0, 1, 0, 0
2023-06-12, 1, 0, 1, 0, 0
2023-06-13, 3, 0, 2, 0, 0
2023-06-14, 1, 1, 1, 0, 0
2023-06-15, 3, 2, 3, 0, 0
2023-06-16, 2, 0, 2, 0, 0
2023-06-17, 1, 1, 1, 0, 0
2023-06-18, 2, 0, 1, 0, 0
2023-06-19, 1, 0, 1, 0, 0
2023-06-20, 2, 0, 2, 0, 0
2023-06-21, 2, 0, 1, 0, 0
2023-06-22, 2, 0, 1, 0, 0
2023-06-23, 1, 1, 1, 0, 0
2023-06-24, 1, 0, 1, 0, 0
2023-06-25, 2, 0, 1, 0, 0
2023-06-27, 2, 0, 2, 0, 0
2023-06-28, 0, 1, 0, 0, 0
2023-06-29, 1, 0, 1, 0, 0
2023-06-30, 1, 0, 1, 0, 0
2023-07-02, 1, 2, 1, 0, 0
2023-07-03, 0, 1, 0, 0, 0
2023-07-04, 1, 1, 0, 0, 0
2023-07-07, 1, 0, 1, 0, 0
2023-07-08, 1, 0, 1, 0, 0
2023-07-11, 1, 0, 1, 0, 0
2023-07-12, 2, 0, 1, 0, 0
2023-07-13, 2, 0, 1, 0, 0
2023-07-14, 3, 0, 3, 0, 0
2023-07-15, 2, 0, 2, 0, 0
2023-07-16, 2, 0, 2, 0, 0
2023-07-17, 1, 0, 1, 0, 0
2023-07-18, 1, 0, 1, 0, 0
2023-07-20, 2, 0, 2, 0, 0
2023-07-22, 1, 0, 1, 0, 0
2023-07-23, 1, 1, 1, 0, 0
2023-07-24, 1, 0, 0, 0, 0
2023-07-25, 1, 0, 1, 0, 0
2023-07-28, 1, 0, 1, 0, 0
2023-07-29, 2, 0, 2, 0, 0
2023-07-30, 3, 0, 3, 0, 0
2023-08-01, 1, 1, 1, 0, 0
2023-08-02, 1, 2, 1, 0, 0
2023-08-03, 2, 0, 2, 0, 0
2023-08-04, 1, 0, 1, 0, 0
2023-08-05, 2, 0, 2, 0, 0
2023-08-06, 1, 0, 1, 0, 0
2023-08-08, 1, 1, 1, 0, 0
2023-08-09, 2, 0, 1, 0, 0
2023-08-10, 2, 0, 2, 0, 0
2023-08-11, 1, 0, 1, 0, 0
2023-08-12, 2, 2, 2, 0, 0
2023-08-13, 0, 1, 0, 0, 0
2023-08-14, 1, 1, 1, 0, 0
2023-08-15, 3, 0, 3, 0, 0
2023-08-16, 0, 1, 0, 0, 0
2023-08-17, 2, 0, 2, 0, 0
2023-08-19, 0, 1, 0, 0, 0
2023-08-21, 1, 0, 1, 0, 0
2023-08-22, 1, 0, 1, 0, 0
2023-08-23, 2, 0, 2, 0, 0
2023-08-26, 2, 0, 2, 0, 0
2023-08-27, 5, 0, 5, 0, 0
2023-08-28, 3, 1, 3, 0, 0
2023-08-29, 1, 0, 1, 0, 0
2023-08-30, 0, 1, 0, 0, 0
2023-09-02, 4, 0, 3, 0, 0
2023-09-03, 1, 1, 1, 0, 0
2023-09-04, 1, 0, 1, 0, 0
2023-09-05, 2, 0, 2, 0, 0
2023-09-07, 1, 0, 1, 0, 0
2023-09-09, 0, 1, 0, 0, 0
2023-09-10, 1, 0, 1, 0, 0
2023-09-11, 2, 0, 2, 0, 0
2023-09-12, 1, 0, 1, 0, 0
2023-09-13, 1, 0, 1, 0, 0
2023-09-14, 1, 1, 1, 0, 0
2023-09-15, 2, 0, 2, 0, 0
2023-09-17, 1, 0, 0, 0, 0
2023-09-18, 2, 0, 2, 0, 0
2023-09-19, 1, 1, 1, 0, 0
2023-09-21, 1, 0, 1, 0, 0
2023-09-22, 2, 1, 2, 0, 0
2023-09-23, 3, 2, 3, 0, 0
2023-09-24, 4, 1, 4, 0, 0
2023-09-25, 2, 0, 2, 0, 0
2023-09-27, 3, 0, 2, 0, 0
2023-10-01, 2, 0, 2, 0, 0
2023-10-03, 1, 0, 1, 0, 0
2023-10-04, 2, 0, 2, 0, 0
2023-10-05, 2, 0, 2, 0, 0
2023-10-06, 0, 2, 0, 0, 0
2023-10-07, 2, 0, 1, 0, 0
2023-10-08, 4, 0, 4, 0, 0
2023-10-09, 1, 0, 1, 0, 0
2023-10-10, 0, 1, 0, 0, 0
2023-10-11, 2, 0, 2, 0, 0
2023-10-12, 2, 0, 1, 0, 0
2023-10-14, 1, 0, 1, 0, 0
2023-10-17, 1, 0, 1, 0, 0
2023-10-18, 1, 0, 0, 0, 0
2023-10-19, 1, 0, 1, 0, 0
2023-10-21, 1, 0, 1, 0, 0
2023-10-22, 3, 0, 2, 0, 0
2023-10-25, 1, 1, 1, 0, 0
2023-10-26, 1, 0, 1, 0, 0
2023-10-27, 0, 1, 0, 0, 0
2023-10-28, 2, 0, 2, 0, 0
2023-10-29, 2, 0, 2, 0, 0
2023-10-31, 1, 0, 1, 0, 0
2023-11-01, 3, 2, 3, 0, 0
2023-11-02, 1, 1, 1, 0, 0
2023-11-03, 1, 0, 1, 0, 0
2023-11-04, 2, 5, 2, 0, 0
2023-11-05, 2, 1, 2, 0, 0
2023-11-07, 2, 0, 2, 0, 0
2023-11-08, 5, 0, 4, 0, 0
2023-11-09, 2, 0, 2, 0, 0
2023-11-10, 2, 1, 1, 0, 0
2023-11-11, 3, 0, 3, 0, 0
2023-11-12, 2, 0, 2, 0, 0
2023-11-15, 1, 0, 0, 0, 0
2023-11-16, 1, 0, 1, 0, 0
2023-11-18, 2, 1, 2, 0, 0
2023-11-19, 2, 0, 1, 0, 0
2023-11-21, 0, 1, 0, 0, 0
2023-11-22, 1, 0, 0, 0, 0
2023-11-24, 2, 0, 2, 0, 0
2023-11-26, 1, 0, 1, 0, 0
2023-11-27, 1, 0, 1, 0, 0
2023-11-28, 3, 0, 3, 0, 0
2023-11-29, 2, 0, 2, 0, 0
2023-11-30, 1, 0, 1, 0, 0
2023-12-01, 1, 0, 1, 0, 0
2023-12-02, 6, 2, 3, 0, 2
2023-12-03, 16, 1, 1, 0, 15
2023-12-04, 11, 0, 1, 0, 10
2023-12-05, 11, 0, 1, 0, 10
2023-12-06, 6, 0, 1, 0, 5
2023-12-07, 11, 0, 0, 0, 11
2023-12-08, 8, 1, 2, 0, 5
2023-12-09, 11, 0, 1, 0, 9
2023-12-10, 8, 0, 1, 0, 7
2023-12-11, 5, 0, 0, 0, 5
2023-12-12, 9, 0, 1, 0, 8
2023-12-13, 3, 2, 3, 0, 0
2023-12-14, 2, 0, 1, 0, 1
2023-12-15, 8, 0, 4, 0, 4
2023-12-16, 2, 0, 1, 0, 1
2023-12-17, 1, 1, 0, 0, 1
2023-12-18, 5, 0, 4, 0, 1
2023-12-20, 4, 0, 2, 0, 2
2023-12-21, 2, 0, 0, 0, 2
2023-12-22, 2, 0, 1, 0, 0
2023-12-23, 4, 0, 2, 0, 1
2023-12-24, 8, 0, 7, 0, 1
2023-12-25, 3, 0, 0, 0, 3
2023-12-26, 2, 2, 1, 0, 1
2023-12-27, 2, 0, 1, 0, 1
2023-12-28, 2, 1, 0, 0, 2
2023-12-29, 0, 1, 0, 0, 0
2023-12-30, 5, 1, 2, 0, 1
2023-12-31, 3, 0, 0, 0, 2
2024-01-01, 3, 1, 2, 0, 1
2024-01-02, 3, 0, 1, 0, 2
2024-01-03, 2, 0, 1, 0, 1
2024-01-04, 5, 0, 1, 0, 4
2024-01-05, 1, 0, 0, 0, 1
2024-01-06, 4, 0, 2, 0, 2
2024-01-07, 4, 0, 3, 0, 1
2024-01-08, 2, 0, 0, 0, 2
2024-01-09, 3, 1, 1, 0, 2
2024-01-10, 2, 1, 1, 0, 1
2024-01-11, 6, 0, 1, 0, 4
2024-01-12, 2, 0, 1, 0, 1
2024-01-13, 6, 0, 3, 0, 3
2024-01-14, 2, 1, 2, 0, 0
2024-01-15, 3, 0, 2, 0, 1
2024-01-16, 3, 0, 2, 0, 1
2024-01-17, 4, 0, 3, 0, 1
2024-01-18, 1, 0, 1, 0, 0
2024-01-19, 5, 0, 4, 0, 1
2024-01-20, 3, 1, 1, 0, 2
2024-01-21, 4, 0, 2, 0, 2
2024-01-22, 1, 0, 1, 0, 0
2024-01-24, 3, 0, 0, 0, 3
2024-01-26, 0, 1, 0, 0, 0
2024-01-27, 2, 0, 1, 0, 0
2024-01-28, 5, 0, 2, 0, 3
2024-01-29, 1, 0, 1, 0, 0
2024-01-30, 2, 0, 0, 0, 2
2024-01-31, 4, 1, 2, 0, 2
2024-02-01, 1, 1, 0, 0, 2
2024-02-02, 1, 1, 0, 0, 1
2024-02-03, 3, 0, 3, 0, 0
2024-02-04, 2, 0, 0, 0, 2
2024-02-05, 3, 0, 1, 0, 2
2024-02-06, 2, 0, 1, 0, 0
2024-02-07, 3, 0, 3, 0, 0
2024-02-08, 1, 0, 0, 0, 1
2024-02-09, 1, 0, 0, 0, 1
2024-02-10, 2, 0, 0, 0, 2
2024-02-11, 1, 0, 0, 0, 0
2024-02-12, 2, 1, 1, 0, 1
2024-02-13, 2, 0, 0, 0, 0
2024-02-14, 3, 0, 3, 0, 0
2024-02-15, 2, 0, 1, 0, 1
2024-02-16, 3, 0, 2, 0, 1
2024-02-17, 8, 0, 5, 0, 2
2024-02-18, 3, 0, 2, 0, 1
2024-02-19, 2, 0, 0, 0, 2
2024-02-20, 3, 0, 1, 0, 2
2024-02-21, 3, 0, 2, 0, 1
2024-02-22, 0, 1, 0, 0, 0
2024-02-23, 1, 0, 0, 0, 1
2024-02-24, 2, 1, 1, 0, 1
2024-02-25, 2, 0, 0, 0, 1
2024-02-26, 2, 0, 0, 0, 2
2024-02-27, 1, 0, 1, 0, 0
2024-02-28, 3, 0, 3, 0, 0
2024-02-29, 1, 0, 1, 0, 0
2024-03-01, 4, 0, 3, 0, 1
2024-03-02, 0, 1, 0, 0, 0
2024-03-03, 4, 1, 2, 0, 2
2024-03-04, 1, 0, 1, 0, 0
2024-03-05, 1, 0, 1, 0, 0
2024-03-06, 6, 0, 5, 0, 0
2024-03-07, 4, 0, 4, 0, 0
2024-03-08, 2, 0, 2, 0, 0
2024-03-09, 3, 0, 2, 0, 1
2024-03-10, 4, 0, 4, 0, 0
2024-03-12, 2, 0, 1, 0, 1
2024-03-13, 1, 1, 1, 0, 0
2024-03-14, 1, 1, 1, 0, 0
2024-03-15, 1, 0, 1, 0, 0
2024-03-16, 2, 4, 2, 0, 0
2024-03-17, 3, 0, 3, 0, 0
2024-03-19, 1, 0, 1, 0, 0
2024-03-20, 2, 0, 2, 0, 0
2024-03-21, 1, 0, 1, 0, 0
2024-03-22, 1, 0, 1, 0, 0
2024-03-23, 2, 0, 2, 0, 0
2024-03-24, 4, 1, 4, 0, 0
2024-03-25, 3, 0, 2, 0, 0
2024-03-26, 2, 0, 1, 0, 1
2024-03-27, 1, 0, 1, 0, 0
2024-03-28, 4, 0, 3, 0, 1
2024-03-29, 1, 0, 1, 0, 0
2024-03-30, 2, 0, 1, 0, 1
2024-03-31, 2, 1, 2, 0, 0
2024-04-01, 3, 1, 3, 0, 0
2024-04-02, 1, 0, 1, 0, 0
2024-04-03, 0, 1, 0, 0, 0
2024-04-04, 5, 0, 5, 0, 0
2024-04-05, 0, 1, 0, 0, 0
2024-04-06, 1, 0, 0, 0, 0
2024-04-07, 1, 0, 0, 0, 1
2024-04-09, 1, 0, 1, 0, 0
2024-04-10, 2, 0, 2, 0, 0
2024-04-11, 1, 0, 1, 0, 0
2024-04-12, 3, 0, 1, 0, 2
2024-04-13, 2, 0, 2, 0, 0
2024-04-14, 2, 0, 2, 0, 0
2024-04-15, 4, 0, 2, 0, 1
2024-04-16, 1, 0, 1, 0, 0
2024-04-17, 3, 0, 3, 0, 0
2024-04-18, 3, 0, 3, 0, 0
2024-04-19, 2, 1, 1, 0, 0
2024-04-20, 2, 0, 1, 0, 1
2024-04-21, 3, 1, 1, 0, 2
2024-04-22, 3, 0, 2, 0, 0
2024-04-23, 1, 0, 1, 0, 0
2024-04-24, 2, 0, 1, 0, 0
2024-04-25, 1, 0, 1, 0, 0
2024-04-26, 2, 1, 2, 0, 0
2024-04-27, 2, 0, 2, 0, 0
2024-04-28, 4, 0, 4, 0, 0
2024-04-29, 3, 0, 2, 0, 0
2024-04-30, 1, 0, 1, 0, 0
2024-05-01, 1, 0, 1, 0, 0
2024-05-02, 6, 0, 6, 0, 0
2024-05-03, 3, 0, 3, 0, 0
2024-05-04, 4, 1, 3, 0, 1
2024-05-05, 3, 0, 2, 0, 1
2024-05-06, 2, 1, 2, 0, 0
2024-05-08, 1, 1, 1, 0, 0
2024-05-09, 1, 8, 0, 0, 1
2024-05-11, 2, 0, 2, 0, 0
2024-05-12, 3, 0, 2, 0, 0
2024-05-14, 1, 0, 1, 0, 0
2024-05-15, 4, 1, 3, 0, 0
2024-05-16, 1, 0, 1, 0, 0
2024-05-17, 1, 1, 1, 0, 0
2024-05-18, 3, 0, 3, 0, 0
2024-05-19, 3, 1, 2, 0, 1
2024-05-20, 2, 0, 2, 0, 0
2024-05-22, 3, 0, 2, 0, 1
2024-05-23, 1, 0, 0, 0, 0
2024-05-24, 2, 1, 2, 0, 0
2024-05-25, 2, 0, 2, 0, 0
2024-05-26, 1, 0, 1, 0, 0
2024-05-27, 4, 0, 3, 0, 0
2024-05-28, 1, 0, 1, 0, 0
2024-05-29, 1, 0, 1, 0, 0
2024-05-30, 2, 1, 2, 0, 0
2024-05-31, 1, 1, 1, 0, 0
2024-06-01, 3, 0, 3, 0, 0
2024-06-02, 2, 0, 2, 0, 0
2024-06-04, 1, 0, 0, 0, 0
2024-06-05, 3, 1, 2, 0, 1
2024-06-06, 2, 0, 2, 0, 0
2024-06-07, 2, 0, 1, 0, 1
2024-06-08, 1, 0, 0, 0, 1
2024-06-09, 2, 0, 2, 0, 0
2024-06-10, 2, 0, 2, 0, 0
2024-06-11, 2, 0, 2, 0, 0
2024-06-12, 1, 0, 1, 0, 0
2024-06-16, 4, 0, 4, 0, 0
2024-06-17, 4, 0, 3, 0, 0
2024-06-18, 1, 1, 0, 0, 1
2024-06-21, 1, 0, 1, 0, 0
2024-06-22, 3, 0, 2, 0, 1
2024-06-23, 1, 0, 1, 0, 0
2024-06-24, 1, 0, 1, 0, 0
2024-06-25, 1, 1, 1, 0, 0
2024-06-26, 17, 0, 14, 0, 0
